This is the latest recevied weather packets stored in our database for station/object N1OF. If no packets are shown the sender has not sent any weather packets the latest 10 day(s).
| Time | Temp. | Humidity | Pressure | Rain* | Wind** | Luminosity | Snow |
|---|---|---|---|---|---|---|---|
| 1778011242 | 10.56° C | 94% | 1008.5 hPa | 1.78 mm | - | - | - |
| 1778010938 | 11.11° C | 94% | 1008.5 hPa | 3.05 mm | - | - | - |
| 1778010636 | 11.11° C | 94% | 1008.2 hPa | 3.05 mm | - | - | - |
| 1778010333 | 11.11° C | 94% | 1008.9 hPa | 1.27 mm | - | - | - |
| 1778010028 | 11.67° C | 94% | 1009.1 hPa | 1.27 mm | - | - | - |
| 1778009725 | 11.67° C | 94% | 1008.9 hPa | 1.78 mm | - | - | - |
| 1778009423 | 11.67° C | 94% | 1009.1 hPa | 1.27 mm | - | - | - |
| 1778009121 | 11.11° C | 93% | 1009.1 hPa | 4.32 mm | - | - | - |
| 1778008818 | 11.11° C | 93% | 1009.2 hPa | 4.83 mm | - | - | - |
| 1778008511 | 11.11° C | 92% | 1009.4 hPa | 3.05 mm | - | - | - |
| 1778008209 | 11.11° C | 92% | 1009.4 hPa | 3.05 mm | - | - | - |
| 1778007903 | 11.11° C | 91% | 1009.4 hPa | 1.78 mm | - | - | - |
| 1778007598 | 11.11° C | 91% | 1009.3 hPa | 1.78 mm | - | - | - |
| 1778007296 | 11.67° C | 90% | 1009.3 hPa | 3.05 mm | - | - | - |
| 1778006992 | 11.67° C | 90% | 1008.9 hPa | 3.05 mm | - | - | - |
| 1778006689 | 11.67° C | 89% | 1009.2 hPa | 3.05 mm | - | - | - |
| 1778006385 | 11.67° C | 88% | 1009.1 hPa | 1.27 mm | - | - | - |
| 1778006083 | 11.67° C | 88% | 1009.3 hPa | 1.78 mm | - | - | - |
| 1778005780 | 11.11° C | 88% | 1009 hPa | 1.78 mm | - | - | - |
| 1778005477 | 11.67° C | 88% | 1008.8 hPa | 0 mm | - | - | - |
| 1778005172 | 11.67° C | 88% | 1008.9 hPa | 0 mm | - | - | - |
| 1778004870 | 11.67° C | 88% | 1008.9 hPa | 0 mm | - | - | - |
| 1778004567 | 11.67° C | 88% | 1008.8 hPa | 0 mm | - | - | - |
| 1778004263 | 11.67° C | 88% | 1008.7 hPa | 1.27 mm | - | - | - |
| 1778003960 | 12.22° C | 89% | 1008.7 hPa | 1.78 mm | - | - | - |
* Rain latest hour (hover to see other rain measurements)
** Current wind speed in m/s (hover to see current wind gust speed)